OBJECT F

Satellite information

Favourite Embed

Satellite Type and Status

UNKNOWNIN ORBIT

Key statistics

Satellite OBJECT F at a glance.

Uptime

1382

Days in orbit

Revolutions

≈ 15.2

Per day

Orbit

LEO

Low Earth Orbit

Inclination

63.5

Latest

Satellite identification and parameters

Extended collection of information and parameters for OBJECT F.

Object identification

Identified? True

Debris? False

Object name: OBJECT F

International designator: 2022-023F

Object number (NORAD): 51951

Object ID (CCSDS): 51951

Country: PEOPLES REPUBLIC OF CHINA (PRC)

Current information (Y/N): Y

RCS size: LARGE

Orbital parameters

Period: 94.843 minutes

Inclination: 63.466 deg

SMA: 6889.131 km

Apoapsis: 589.394 km

Periapsis: 432.599 km

RAAN: 176.3148 deg

Eccentricy: 0.01137988

Argument of periapsis: 340.634 deg

Mean anomaly: 19.0464 deg

Mean motion: 15.18294755 rev/day

Mean motion (dot): 0.00004476 rev/day2

B* drag term: 0.00019366858 1/REarth

Two-line elements (TLE)

Creation date: Dec. 16, 2025, 2:19 a.m.

Reference frame: TEME

Reference center: EARTH

Epoch: Dec. 15, 2025, 10:54 p.m. UTC

TLE line 0: 0 OBJECT F

TLE line 1: 1 51951U 22023F 25349.95452795 .00004476 00000-0 19367-3 0 9999

TLE line 2: 2 51951 63.4660 176.3148 0113799 340.6340 19.0464 15.18294755209897

Live tracking on map

Real-time ground track for satellite OBJECT F.

In-orbit conjunctions

There are no conjunctions computed for OBJECT F, at the moment. Check back to stay up to date, as we update our databases every day.

Go to all conjunctions

Associated space launch

The first flight dedicated to the launch of the Internet constellation of GalaxySpace, a private company, planning the total deployment of more than 1000 satellites in earth orbit. The satellites broadcast in 5G, with a capacity of 10 Gb.

OBJECT F was lifted into orbit during the mission ‘Long March 2C | Yinhe-1 (x6)’, on board a Long March 2 space rocket.

The launch took place on March 5, 2022, 6:01 a.m. from Launch Complex 3 (LC-3/LA-1).

For more information about the launch, click the button.

Launch to space Long March 2C | Yinhe-1 (x6)
Long March 2C | Yinhe-1 (x6)

Agency: N/A

Status: Launch Successful

Launch date: March 5, 2022, 6:01 a.m. UTC

Rocket: Long March 2

Launch pad: Launch Complex 3 (LC-3/LA-1)

Location: Xichang Satellite Launch Center, People's Republic of China

...

Latest news about this satellite

News about space launch
Long March rocket deploys six Chinese internet satellites

Six demonstration satellites for a future Chinese broadband internet mega-constellation launched March 5 on a Long March 2C rocket.

News about space launch
China launches test satellites for broadband constellation

China  launched a set of commercial satellites Saturday for testing broadband services, on-orbit networking and integrating communications and remote sensing technologies.


Newsletter sign-up

Weekly statistics, charts and insights to help you stay on top of the space industry.